Torna al catalogo

STARLINK-38138

AttivoComunicazioniSSO
NORAD 100384·PAYLOAD·🇺🇸 United States

Lanciato Aug 19, 2026 da Vandenberg Space Force Base

Loading…

Prossimi Passaggi (prossime 24 ore)

TLE

AggiornatoSource: Space-Track

Epoca: Sep 14, 2026, 12:45 UTC

1 A0384U 26190P   26257.53136919  .00326660  00000-0  20042-2 0  9995
2 A0384  97.2845 111.5545 0000826 163.4433 196.6860 15.76355961  5407

Traccia STARLINK-38138 in tempo reale con AllMySat

Download on the App Store